Year,Month,Day,Hour,Minute,Value (Times are PST for temperature in C)
2017,08,11,00,00,9.80
2017,08,11,00,01,9.80
2017,08,11,00,02,9.80
2017,08,11,00,03,9.70
2017,08,11,00,04,9.70
2017,08,11,00,05,9.70
2017,08,11,00,06,9.80
2017,08,11,00,07,9.80
2017,08,11,00,08,9.80
2017,08,11,00,09,9.90
2017,08,11,00,10,9.90
2017,08,11,00,11,10.00
2017,08,11,00,12,10.00
2017,08,11,00,13,10.00
2017,08,11,00,14,10.10
2017,08,11,00,15,10.10
2017,08,11,00,16,10.10
2017,08,11,00,17,10.10
2017,08,11,00,18,10.10
2017,08,11,00,19,10.10
2017,08,11,00,20,10.10
2017,08,11,00,21,10.10
2017,08,11,00,22,10.10
2017,08,11,00,23,10.20
2017,08,11,00,24,10.20
2017,08,11,00,25,10.20
2017,08,11,00,26,10.20
2017,08,11,00,27,10.10
2017,08,11,00,28,10.10
2017,08,11,00,29,10.10
2017,08,11,00,30,10.00
2017,08,11,00,31,10.00
2017,08,11,00,32,10.00
2017,08,11,00,33,10.00
2017,08,11,00,34,10.00
2017,08,11,00,35,10.00
2017,08,11,00,36,10.00
2017,08,11,00,37,9.90
2017,08,11,00,38,9.90
2017,08,11,00,39,9.90
2017,08,11,00,40,9.90
2017,08,11,00,41,9.90
2017,08,11,00,42,9.90
2017,08,11,00,43,9.80
2017,08,11,00,44,9.80
2017,08,11,00,45,9.80
2017,08,11,00,46,9.80
2017,08,11,00,47,9.70
2017,08,11,00,48,9.70
2017,08,11,00,49,9.70
2017,08,11,00,50,9.70
2017,08,11,00,51,9.60
2017,08,11,00,52,9.60
2017,08,11,00,53,9.60
2017,08,11,00,54,9.60
2017,08,11,00,55,9.60
2017,08,11,00,56,9.60
2017,08,11,00,57,9.60
2017,08,11,00,58,9.60
2017,08,11,00,59,9.60
2017,08,11,01,00,9.60
2017,08,11,01,01,9.60
2017,08,11,01,02,9.60
2017,08,11,01,03,9.60
2017,08,11,01,04,9.60
2017,08,11,01,05,9.60
2017,08,11,01,06,9.50
2017,08,11,01,07,9.60
2017,08,11,01,08,9.60
2017,08,11,01,09,9.60
2017,08,11,01,10,9.60
2017,08,11,01,11,9.60
2017,08,11,01,12,9.60
2017,08,11,01,13,9.60
2017,08,11,01,14,9.60
2017,08,11,01,15,9.60
2017,08,11,01,16,9.60
2017,08,11,01,17,9.60
2017,08,11,01,18,9.60
2017,08,11,01,19,9.50
2017,08,11,01,20,9.50
2017,08,11,01,21,9.50
2017,08,11,01,22,9.50
2017,08,11,01,23,9.50
2017,08,11,01,24,9.40
2017,08,11,01,25,9.40
2017,08,11,01,26,9.40
2017,08,11,01,27,9.40
2017,08,11,01,28,9.30
2017,08,11,01,29,9.30
2017,08,11,01,30,9.40
2017,08,11,01,31,9.40
2017,08,11,01,32,9.40
2017,08,11,01,33,9.50
2017,08,11,01,34,9.50
2017,08,11,01,35,9.50
2017,08,11,01,36,9.60
2017,08,11,01,37,9.60
2017,08,11,01,38,9.60
2017,08,11,01,39,9.70
2017,08,11,01,40,9.70
2017,08,11,01,41,9.70
2017,08,11,01,42,9.70
2017,08,11,01,43,9.70
2017,08,11,01,44,9.70
2017,08,11,01,45,9.60
2017,08,11,01,46,9.60
2017,08,11,01,47,9.60
2017,08,11,01,48,9.60
2017,08,11,01,49,9.60
2017,08,11,01,50,9.60
2017,08,11,01,51,9.50
2017,08,11,01,52,9.50
2017,08,11,01,53,9.50
2017,08,11,01,54,9.40
2017,08,11,01,55,9.40
2017,08,11,01,56,9.40
2017,08,11,01,57,9.40
2017,08,11,01,58,9.40
2017,08,11,01,59,9.40
2017,08,11,02,00,9.40
2017,08,11,02,01,9.40
2017,08,11,02,02,9.40
2017,08,11,02,03,9.40
2017,08,11,02,04,9.40
2017,08,11,02,05,9.40
2017,08,11,02,06,9.30
2017,08,11,02,07,9.30
2017,08,11,02,08,9.30
2017,08,11,02,09,9.30
2017,08,11,02,10,9.30
2017,08,11,02,11,9.30
2017,08,11,02,12,9.30
2017,08,11,02,13,9.20
2017,08,11,02,14,9.20
2017,08,11,02,15,9.20
2017,08,11,02,16,9.20
2017,08,11,02,17,9.20
2017,08,11,02,18,9.20
2017,08,11,02,19,9.20
2017,08,11,02,20,9.20
2017,08,11,02,21,9.20
2017,08,11,02,22,9.20
2017,08,11,02,23,9.30
2017,08,11,02,24,9.30
2017,08,11,02,25,9.30
2017,08,11,02,26,9.30
2017,08,11,02,27,9.30
2017,08,11,02,28,9.30
2017,08,11,02,29,9.30
2017,08,11,02,30,9.30
2017,08,11,02,31,9.30
2017,08,11,02,32,9.30
2017,08,11,02,33,9.30
2017,08,11,02,34,9.30
2017,08,11,02,35,9.30
2017,08,11,02,36,9.30
2017,08,11,02,37,9.30
2017,08,11,02,38,9.30
2017,08,11,02,39,9.30
2017,08,11,02,40,9.30
2017,08,11,02,41,9.30
2017,08,11,02,42,9.30
2017,08,11,02,43,9.20
2017,08,11,02,44,9.20
2017,08,11,02,45,9.20
2017,08,11,02,46,9.20
2017,08,11,02,47,9.20
2017,08,11,02,48,9.20
2017,08,11,02,49,9.20
2017,08,11,02,50,9.20
2017,08,11,02,51,9.20
2017,08,11,02,52,9.20
2017,08,11,02,53,9.20
2017,08,11,02,54,9.20
2017,08,11,02,55,9.20
2017,08,11,02,56,9.20
2017,08,11,02,57,9.20
2017,08,11,02,58,9.20
2017,08,11,02,59,9.20
2017,08,11,03,00,9.20
2017,08,11,03,01,9.20
2017,08,11,03,02,9.20
2017,08,11,03,03,9.20
2017,08,11,03,04,9.20
2017,08,11,03,05,9.20
2017,08,11,03,06,9.20
2017,08,11,03,07,9.20
2017,08,11,03,08,9.20
2017,08,11,03,09,9.20
2017,08,11,03,10,9.20
2017,08,11,03,11,9.20
2017,08,11,03,12,9.20
2017,08,11,03,13,9.20
2017,08,11,03,14,9.10
2017,08,11,03,15,9.20
2017,08,11,03,16,9.20
2017,08,11,03,17,9.20
2017,08,11,03,18,9.20
2017,08,11,03,19,9.20
2017,08,11,03,20,9.20
2017,08,11,03,21,9.20
2017,08,11,03,22,9.20
2017,08,11,03,23,9.20
2017,08,11,03,24,9.10
2017,08,11,03,25,9.10
2017,08,11,03,26,9.10
2017,08,11,03,27,9.10
2017,08,11,03,28,9.20
2017,08,11,03,29,9.20
2017,08,11,03,30,9.20
2017,08,11,03,31,9.20
2017,08,11,03,32,9.30
2017,08,11,03,33,9.30
2017,08,11,03,34,9.20
2017,08,11,03,35,9.20
2017,08,11,03,36,9.20
2017,08,11,03,37,9.20
2017,08,11,03,38,9.20
2017,08,11,03,39,9.20
2017,08,11,03,40,9.10
2017,08,11,03,41,9.10
2017,08,11,03,42,9.10
2017,08,11,03,43,9.10
2017,08,11,03,44,9.10
2017,08,11,03,45,9.10
2017,08,11,03,46,9.20
2017,08,11,03,47,9.20
2017,08,11,03,48,9.20
2017,08,11,03,49,9.20
2017,08,11,03,50,9.20
2017,08,11,03,51,9.20
2017,08,11,03,52,9.20
2017,08,11,03,53,9.20
2017,08,11,03,54,9.20
2017,08,11,03,55,9.20
2017,08,11,03,56,9.30
2017,08,11,03,57,9.30
2017,08,11,03,58,9.30
2017,08,11,03,59,9.30
2017,08,11,04,00,9.30
2017,08,11,04,01,9.30
2017,08,11,04,02,9.30
2017,08,11,04,03,9.30
2017,08,11,04,04,9.30
2017,08,11,04,05,9.30
2017,08,11,04,06,9.30
2017,08,11,04,07,9.30
2017,08,11,04,08,9.40
2017,08,11,04,09,9.40
2017,08,11,04,10,9.40
2017,08,11,04,11,9.40
2017,08,11,04,12,9.40
2017,08,11,04,13,9.40
2017,08,11,04,14,9.40
2017,08,11,04,15,9.40
2017,08,11,04,16,9.30
2017,08,11,04,17,9.30
2017,08,11,04,18,9.30
2017,08,11,04,19,9.30
2017,08,11,04,20,9.30
2017,08,11,04,21,9.30
2017,08,11,04,22,9.30
2017,08,11,04,23,9.20
2017,08,11,04,24,9.20
2017,08,11,04,25,9.20
2017,08,11,04,26,9.20
2017,08,11,04,27,9.20
2017,08,11,04,28,9.10
2017,08,11,04,29,9.10
2017,08,11,04,30,9.10
2017,08,11,04,31,9.10
2017,08,11,04,32,9.10
2017,08,11,04,33,9.10
2017,08,11,04,34,9.10
2017,08,11,04,35,9.00
2017,08,11,04,36,9.00
2017,08,11,04,37,9.00
2017,08,11,04,38,9.00
2017,08,11,04,39,9.00
2017,08,11,04,40,9.00
2017,08,11,04,41,9.00
2017,08,11,04,42,8.90
2017,08,11,04,43,8.90
2017,08,11,04,44,8.90
2017,08,11,04,45,8.90
2017,08,11,04,46,8.90
2017,08,11,04,47,8.90
2017,08,11,04,48,8.80
2017,08,11,04,49,8.80
2017,08,11,04,50,8.80
2017,08,11,04,51,8.80
2017,08,11,04,52,8.80
2017,08,11,04,53,8.80
2017,08,11,04,54,8.80
2017,08,11,04,55,8.80
2017,08,11,04,56,8.80
2017,08,11,04,57,8.80
2017,08,11,04,58,8.70
2017,08,11,04,59,8.70
2017,08,11,05,00,8.70
2017,08,11,05,01,8.70
2017,08,11,05,02,8.70
2017,08,11,05,03,8.60
2017,08,11,05,04,8.60
2017,08,11,05,05,8.60
2017,08,11,05,06,8.60
2017,08,11,05,07,8.60
2017,08,11,05,08,8.60
2017,08,11,05,09,8.60
2017,08,11,05,10,8.60
2017,08,11,05,11,8.60
2017,08,11,05,12,8.60
2017,08,11,05,13,8.60
2017,08,11,05,14,8.50
2017,08,11,05,15,8.50
2017,08,11,05,16,8.50
2017,08,11,05,17,8.40
2017,08,11,05,18,8.40
2017,08,11,05,19,8.40
2017,08,11,05,20,8.40
2017,08,11,05,21,8.40
2017,08,11,05,22,8.40
2017,08,11,05,23,8.40
2017,08,11,05,24,8.40
2017,08,11,05,25,8.40
2017,08,11,05,26,8.40
2017,08,11,05,27,8.40
2017,08,11,05,28,8.40
2017,08,11,05,29,8.40
2017,08,11,05,30,8.50
2017,08,11,05,31,8.50
2017,08,11,05,32,8.50
2017,08,11,05,33,8.60
2017,08,11,05,34,8.60
2017,08,11,05,35,8.70
2017,08,11,05,36,8.70
2017,08,11,05,37,8.80
2017,08,11,05,38,8.80
2017,08,11,05,39,8.80
2017,08,11,05,40,8.90
2017,08,11,05,41,8.90
2017,08,11,05,42,8.90
2017,08,11,05,43,8.90
2017,08,11,05,44,9.00
2017,08,11,05,45,9.00
2017,08,11,05,46,9.00
2017,08,11,05,47,9.10
2017,08,11,05,48,9.10
2017,08,11,05,49,9.10
2017,08,11,05,50,9.20
2017,08,11,05,51,9.20
2017,08,11,05,52,9.20
2017,08,11,05,53,9.20
2017,08,11,05,54,9.20
2017,08,11,05,55,9.20
2017,08,11,05,56,9.20
2017,08,11,05,57,9.20
2017,08,11,05,58,9.20
2017,08,11,05,59,9.20
2017,08,11,06,00,9.10
2017,08,11,06,01,9.10
2017,08,11,06,02,9.10
2017,08,11,06,03,9.10
2017,08,11,06,04,9.00
2017,08,11,06,05,9.00
2017,08,11,06,06,8.90
2017,08,11,06,07,8.90
2017,08,11,06,08,8.90
2017,08,11,06,09,8.90
2017,08,11,06,10,8.90
2017,08,11,06,11,8.90
2017,08,11,06,12,8.90
2017,08,11,06,13,8.90
2017,08,11,06,14,8.80
2017,08,11,06,15,8.80
2017,08,11,06,16,8.80
2017,08,11,06,17,8.80
2017,08,11,06,18,8.80
2017,08,11,06,19,8.80
2017,08,11,06,20,8.80
2017,08,11,06,21,8.80
2017,08,11,06,22,8.80
2017,08,11,06,23,8.80
2017,08,11,06,24,8.80
2017,08,11,06,25,8.90
2017,08,11,06,26,8.90
2017,08,11,06,27,8.90
2017,08,11,06,28,8.90
2017,08,11,06,29,9.00
2017,08,11,06,30,9.00
2017,08,11,06,31,9.10
2017,08,11,06,32,9.20
2017,08,11,06,33,9.20
2017,08,11,06,34,9.20
2017,08,11,06,35,9.20
2017,08,11,06,36,9.30
2017,08,11,06,37,9.30
2017,08,11,06,38,9.30
2017,08,11,06,39,9.30
2017,08,11,06,40,9.30
2017,08,11,06,41,9.40
2017,08,11,06,42,9.40
2017,08,11,06,43,9.40
2017,08,11,06,44,9.40
2017,08,11,06,45,9.40
2017,08,11,06,46,9.40
2017,08,11,06,47,9.50
2017,08,11,06,48,9.50
2017,08,11,06,49,9.60
2017,08,11,06,50,9.60
2017,08,11,06,51,9.60
2017,08,11,06,52,9.70
2017,08,11,06,53,9.70
2017,08,11,06,54,9.70
2017,08,11,06,55,9.70
2017,08,11,06,56,9.70
2017,08,11,06,57,9.70
2017,08,11,06,58,9.70
2017,08,11,06,59,9.70
2017,08,11,07,00,9.70
2017,08,11,07,01,9.70
2017,08,11,07,02,9.70
2017,08,11,07,03,9.70
2017,08,11,07,04,9.70
2017,08,11,07,05,9.70
2017,08,11,07,06,9.70
2017,08,11,07,07,9.70
2017,08,11,07,08,9.70
2017,08,11,07,09,9.70
2017,08,11,07,10,9.70
2017,08,11,07,11,9.80
2017,08,11,07,12,9.80
2017,08,11,07,13,9.80
2017,08,11,07,14,9.80
2017,08,11,07,15,9.80
2017,08,11,07,16,9.80
2017,08,11,07,17,9.80
2017,08,11,07,18,9.90
2017,08,11,07,19,9.90
2017,08,11,07,20,9.90
2017,08,11,07,21,9.90
2017,08,11,07,22,9.90
2017,08,11,07,23,9.90
2017,08,11,07,24,9.90
2017,08,11,07,25,9.90
2017,08,11,07,26,10.00
2017,08,11,07,27,9.90
2017,08,11,07,28,10.00
2017,08,11,07,29,10.00
2017,08,11,07,30,10.00
2017,08,11,07,31,10.00
2017,08,11,07,32,10.10
2017,08,11,07,33,10.10
2017,08,11,07,34,10.10
2017,08,11,07,35,10.10
2017,08,11,07,36,10.20
2017,08,11,07,37,10.10
2017,08,11,07,38,10.10
2017,08,11,07,39,10.10
2017,08,11,07,40,10.10
2017,08,11,07,41,10.20
2017,08,11,07,42,10.20
2017,08,11,07,43,10.20
2017,08,11,07,44,10.20
2017,08,11,07,45,10.20
2017,08,11,07,46,10.30
2017,08,11,07,47,10.40
2017,08,11,07,48,10.40
2017,08,11,07,49,10.50
2017,08,11,07,50,10.50
2017,08,11,07,51,10.50
2017,08,11,07,52,10.50
2017,08,11,07,53,10.50
2017,08,11,07,54,10.50
2017,08,11,07,55,10.60
2017,08,11,07,56,10.60
2017,08,11,07,57,10.60
2017,08,11,07,58,10.60
2017,08,11,07,59,10.60
2017,08,11,08,00,10.60
2017,08,11,08,01,10.60
2017,08,11,08,02,10.70
2017,08,11,08,03,10.70
2017,08,11,08,04,10.70
2017,08,11,08,05,10.70
2017,08,11,08,06,10.70
2017,08,11,08,07,10.70
2017,08,11,08,08,10.70
2017,08,11,08,09,10.70
2017,08,11,08,10,10.70
2017,08,11,08,11,10.70
2017,08,11,08,12,10.80
2017,08,11,08,13,10.80
2017,08,11,08,14,10.80
2017,08,11,08,15,10.80
2017,08,11,08,16,10.80
2017,08,11,08,17,10.80
2017,08,11,08,18,10.80
2017,08,11,08,19,10.80
2017,08,11,08,20,10.80
2017,08,11,08,21,10.80
2017,08,11,08,22,10.80
2017,08,11,08,23,10.90
2017,08,11,08,24,11.00
2017,08,11,08,25,11.00
2017,08,11,08,26,11.10
2017,08,11,08,27,11.10
2017,08,11,08,28,11.10
2017,08,11,08,29,11.20
2017,08,11,08,30,11.20
2017,08,11,08,31,11.20
2017,08,11,08,32,11.30
2017,08,11,08,33,11.30
2017,08,11,08,34,11.40
2017,08,11,08,35,11.30
2017,08,11,08,36,11.30
2017,08,11,08,37,11.30
2017,08,11,08,38,11.30
2017,08,11,08,39,11.30
2017,08,11,08,40,11.30
2017,08,11,08,41,11.30
2017,08,11,08,42,11.40
2017,08,11,08,43,11.40
2017,08,11,08,44,11.50
2017,08,11,08,45,11.50
2017,08,11,08,46,11.60
2017,08,11,08,47,11.60
2017,08,11,08,48,11.60
2017,08,11,08,49,11.60
2017,08,11,08,50,11.60
2017,08,11,08,51,11.60
2017,08,11,08,52,11.60
2017,08,11,08,53,11.60
2017,08,11,08,54,11.80
2017,08,11,08,55,11.80
2017,08,11,08,56,11.90
2017,08,11,08,57,11.90
2017,08,11,08,58,11.90
2017,08,11,08,59,11.90
2017,08,11,09,00,11.90
2017,08,11,09,01,11.80
2017,08,11,09,02,11.90
2017,08,11,09,03,11.90
2017,08,11,09,04,12.00
2017,08,11,09,05,12.10
2017,08,11,09,06,12.10
2017,08,11,09,07,12.10
2017,08,11,09,08,12.20
2017,08,11,09,09,12.20
2017,08,11,09,10,12.20
2017,08,11,09,11,12.30
2017,08,11,09,12,12.30
2017,08,11,09,13,12.30
2017,08,11,09,14,12.30
2017,08,11,09,15,12.30
2017,08,11,09,16,12.30
2017,08,11,09,17,12.30
2017,08,11,09,18,12.40
2017,08,11,09,19,12.40
2017,08,11,09,20,12.50
2017,08,11,09,21,12.60
2017,08,11,09,22,12.60
2017,08,11,09,23,12.60
2017,08,11,09,24,12.60
2017,08,11,09,25,12.60
2017,08,11,09,26,12.60
2017,08,11,09,27,12.60
2017,08,11,09,28,12.60
2017,08,11,09,29,12.60
2017,08,11,09,30,12.60
2017,08,11,09,31,12.60
2017,08,11,09,32,12.70
2017,08,11,09,33,12.70
2017,08,11,09,34,12.70
2017,08,11,09,35,12.70
2017,08,11,09,36,12.70
2017,08,11,09,37,12.70
2017,08,11,09,38,12.80
2017,08,11,09,39,12.80
2017,08,11,09,40,13.00
2017,08,11,09,41,13.00
2017,08,11,09,42,13.10
2017,08,11,09,43,13.00
2017,08,11,09,44,13.00
2017,08,11,09,45,13.00
2017,08,11,09,46,13.00
2017,08,11,09,47,13.10
2017,08,11,09,48,13.10
2017,08,11,09,49,13.10
2017,08,11,09,50,13.10
2017,08,11,09,51,13.10
2017,08,11,09,52,13.20
2017,08,11,09,53,13.30
2017,08,11,09,54,13.20
2017,08,11,09,55,13.20
2017,08,11,09,56,13.20
2017,08,11,09,57,13.30
2017,08,11,09,58,13.30
2017,08,11,09,59,13.30
2017,08,11,10,00,13.30
2017,08,11,10,01,13.40
2017,08,11,10,02,13.40
2017,08,11,10,03,13.40
2017,08,11,10,04,13.40
2017,08,11,10,05,13.40
2017,08,11,10,06,13.40
2017,08,11,10,07,13.40
2017,08,11,10,08,13.40
2017,08,11,10,09,13.40
2017,08,11,10,10,13.40
2017,08,11,10,11,13.50
2017,08,11,10,12,13.50
2017,08,11,10,13,13.50
2017,08,11,10,14,13.50
2017,08,11,10,15,13.50
2017,08,11,10,16,13.60
2017,08,11,10,17,13.60
2017,08,11,10,18,13.70
2017,08,11,10,19,13.80
2017,08,11,10,20,13.80
2017,08,11,10,21,13.80
2017,08,11,10,22,13.80
2017,08,11,10,23,13.80
2017,08,11,10,24,13.80
2017,08,11,10,25,13.80
2017,08,11,10,26,13.80
2017,08,11,10,27,13.90
2017,08,11,10,28,13.90
2017,08,11,10,29,13.80
2017,08,11,10,30,13.80
2017,08,11,10,31,13.80
2017,08,11,10,32,13.90
2017,08,11,10,33,14.00
2017,08,11,10,34,14.10
2017,08,11,10,35,14.00
2017,08,11,10,36,14.00
2017,08,11,10,37,14.00
2017,08,11,10,38,14.00
2017,08,11,10,39,14.10
2017,08,11,10,40,14.10
2017,08,11,10,41,14.20
2017,08,11,10,42,14.20
2017,08,11,10,43,14.20
2017,08,11,10,44,14.20
2017,08,11,10,45,14.20
2017,08,11,10,46,14.20
2017,08,11,10,47,14.20
2017,08,11,10,48,14.20
2017,08,11,10,49,14.30
2017,08,11,10,50,14.20
2017,08,11,10,51,14.20
2017,08,11,10,52,14.30
2017,08,11,10,53,14.30
2017,08,11,10,54,14.40
2017,08,11,10,55,14.40
2017,08,11,10,56,14.40
2017,08,11,10,57,14.50
2017,08,11,10,58,14.40
2017,08,11,10,59,14.50
2017,08,11,11,00,14.60
2017,08,11,11,01,14.80
2017,08,11,11,02,14.90
2017,08,11,11,03,15.00
2017,08,11,11,04,14.90
2017,08,11,11,05,14.80
2017,08,11,11,06,14.70
2017,08,11,11,07,14.70
2017,08,11,11,08,14.70
2017,08,11,11,09,14.80
2017,08,11,11,10,14.80
2017,08,11,11,11,14.80
2017,08,11,11,12,14.80
2017,08,11,11,13,14.80
2017,08,11,11,14,14.70
2017,08,11,11,15,14.70
2017,08,11,11,16,14.70
2017,08,11,11,17,14.70
2017,08,11,11,18,14.60
2017,08,11,11,19,14.60
2017,08,11,11,20,14.50
2017,08,11,11,21,14.50
2017,08,11,11,22,14.50
2017,08,11,11,23,14.60
2017,08,11,11,24,14.70
2017,08,11,11,25,14.80
2017,08,11,11,26,14.90
2017,08,11,11,27,14.90
2017,08,11,11,28,15.00
2017,08,11,11,29,15.10
2017,08,11,11,30,15.00
2017,08,11,11,31,15.00
2017,08,11,11,32,15.10
2017,08,11,11,33,15.10
2017,08,11,11,34,15.20
2017,08,11,11,35,15.20
2017,08,11,11,36,15.20
2017,08,11,11,37,15.10
2017,08,11,11,38,15.00
2017,08,11,11,39,15.10
2017,08,11,11,40,15.10
2017,08,11,11,41,15.10
2017,08,11,11,42,15.10
2017,08,11,11,43,15.00
2017,08,11,11,44,15.00
2017,08,11,11,45,14.90
2017,08,11,11,46,14.90
2017,08,11,11,47,14.90
2017,08,11,11,48,14.90
2017,08,11,11,49,14.90
2017,08,11,11,50,14.80
2017,08,11,11,51,14.70
2017,08,11,11,52,14.70
2017,08,11,11,53,14.60
2017,08,11,11,54,14.60
2017,08,11,11,55,14.70
2017,08,11,11,56,14.80
2017,08,11,11,57,14.80
2017,08,11,11,58,14.90
2017,08,11,11,59,14.90
2017,08,11,12,00,14.80
2017,08,11,12,01,14.80
2017,08,11,12,02,14.70
2017,08,11,12,03,14.60
2017,08,11,12,04,14.50
2017,08,11,12,05,14.40
2017,08,11,12,06,14.30
2017,08,11,12,07,14.30
2017,08,11,12,08,14.20
2017,08,11,12,09,14.30
2017,08,11,12,10,14.30
2017,08,11,12,11,14.30
2017,08,11,12,12,14.40
2017,08,11,12,13,14.50
2017,08,11,12,14,14.60
2017,08,11,12,15,14.80
2017,08,11,12,16,14.90
2017,08,11,12,17,15.00
2017,08,11,12,18,15.20
2017,08,11,12,19,15.30
2017,08,11,12,20,15.50
2017,08,11,12,21,15.80
2017,08,11,12,22,16.00
2017,08,11,12,23,16.20
2017,08,11,12,24,16.30
2017,08,11,12,25,16.40
2017,08,11,12,26,16.50
2017,08,11,12,27,16.60
2017,08,11,12,28,16.70
2017,08,11,12,29,16.80
2017,08,11,12,30,16.80
2017,08,11,12,31,16.70
2017,08,11,12,32,16.70
2017,08,11,12,33,16.60
2017,08,11,12,34,16.50
2017,08,11,12,35,16.40
2017,08,11,12,36,16.40
2017,08,11,12,37,16.40
2017,08,11,12,38,16.40
2017,08,11,12,39,16.40
2017,08,11,12,40,16.30
2017,08,11,12,41,16.30
2017,08,11,12,42,16.20
2017,08,11,12,43,16.10
2017,08,11,12,44,16.10
2017,08,11,12,45,15.90
2017,08,11,12,46,15.70
2017,08,11,12,47,15.60
2017,08,11,12,48,15.50
2017,08,11,12,49,15.50
2017,08,11,12,50,15.60
2017,08,11,12,51,15.60
2017,08,11,12,52,15.70
2017,08,11,12,53,15.80
2017,08,11,12,54,15.80
2017,08,11,12,55,15.80
2017,08,11,12,56,15.80
2017,08,11,12,57,15.80
2017,08,11,12,58,16.00
2017,08,11,12,59,16.30
2017,08,11,13,00,16.50
2017,08,11,13,01,16.60
2017,08,11,13,02,16.70
2017,08,11,13,03,17.00
2017,08,11,13,04,17.10
2017,08,11,13,05,17.10
2017,08,11,13,06,17.10
2017,08,11,13,07,17.00
2017,08,11,13,08,16.80
2017,08,11,13,09,16.60
2017,08,11,13,10,16.40
2017,08,11,13,11,16.20
2017,08,11,13,12,16.10
2017,08,11,13,13,16.00
2017,08,11,13,14,15.90
2017,08,11,13,15,16.00
2017,08,11,13,16,16.00
2017,08,11,13,17,16.10
2017,08,11,13,18,16.20
2017,08,11,13,19,16.30
2017,08,11,13,20,16.30
2017,08,11,13,21,16.40
2017,08,11,13,22,16.40
2017,08,11,13,23,16.40
2017,08,11,13,24,16.40
2017,08,11,13,25,16.60
2017,08,11,13,26,16.50
2017,08,11,13,27,16.50
2017,08,11,13,28,16.50
2017,08,11,13,29,16.70
2017,08,11,13,30,16.70
2017,08,11,13,31,16.70
2017,08,11,13,32,16.70
2017,08,11,13,33,16.90
2017,08,11,13,34,17.00
2017,08,11,13,35,17.10
2017,08,11,13,36,17.00
2017,08,11,13,37,17.00
2017,08,11,13,38,17.00
2017,08,11,13,39,17.10
2017,08,11,13,40,17.20
2017,08,11,13,41,17.40
2017,08,11,13,42,17.70
2017,08,11,13,43,17.90
2017,08,11,13,44,18.20
2017,08,11,13,45,18.40
2017,08,11,13,46,18.50
2017,08,11,13,47,18.70
2017,08,11,13,48,18.80
2017,08,11,13,49,19.00
2017,08,11,13,50,19.10
2017,08,11,13,51,19.10
2017,08,11,13,52,19.20
2017,08,11,13,53,19.20
2017,08,11,13,54,19.20
2017,08,11,13,55,19.30
2017,08,11,13,56,19.30
2017,08,11,13,57,19.40
2017,08,11,13,58,19.20
2017,08,11,13,59,18.90
2017,08,11,14,00,18.70
2017,08,11,14,01,18.50
2017,08,11,14,02,18.30
2017,08,11,14,03,18.30
2017,08,11,14,04,18.30
2017,08,11,14,05,18.30
2017,08,11,14,06,18.20
2017,08,11,14,07,18.20
2017,08,11,14,08,18.20
2017,08,11,14,09,18.30
2017,08,11,14,10,18.30
2017,08,11,14,11,18.40
2017,08,11,14,12,18.50
2017,08,11,14,13,18.60
2017,08,11,14,14,18.70
2017,08,11,14,15,18.80
2017,08,11,14,16,18.90
2017,08,11,14,17,19.20
2017,08,11,14,18,19.30
2017,08,11,14,19,19.40
2017,08,11,14,20,19.50
2017,08,11,14,21,19.60
2017,08,11,14,22,19.50
2017,08,11,14,23,19.50
2017,08,11,14,24,19.40
2017,08,11,14,25,19.30
2017,08,11,14,26,19.20
2017,08,11,14,27,19.20
2017,08,11,14,28,19.20
2017,08,11,14,29,19.20
2017,08,11,14,30,19.20
2017,08,11,14,31,19.20
2017,08,11,14,32,19.20
2017,08,11,14,33,19.30
2017,08,11,14,34,19.30
2017,08,11,14,35,19.40
2017,08,11,14,36,19.40
2017,08,11,14,37,19.30
2017,08,11,14,38,19.30
2017,08,11,14,39,19.30
2017,08,11,14,40,19.20
2017,08,11,14,41,19.10
2017,08,11,14,42,19.00
2017,08,11,14,43,18.80
2017,08,11,14,44,18.70
2017,08,11,14,45,18.70
2017,08,11,14,46,18.70
2017,08,11,14,47,18.70
2017,08,11,14,48,18.80
2017,08,11,14,49,18.80
2017,08,11,14,50,18.80
2017,08,11,14,51,18.80
2017,08,11,14,52,19.00
2017,08,11,14,53,19.20
2017,08,11,14,54,19.20
2017,08,11,14,55,19.30
2017,08,11,14,56,19.40
2017,08,11,14,57,19.40
2017,08,11,14,58,19.50
2017,08,11,14,59,19.50
2017,08,11,15,00,19.60
2017,08,11,15,01,19.70
2017,08,11,15,02,19.70
2017,08,11,15,03,19.70
2017,08,11,15,04,19.80
2017,08,11,15,05,19.90
2017,08,11,15,06,19.90
2017,08,11,15,07,19.90
2017,08,11,15,08,19.90
2017,08,11,15,09,19.90
2017,08,11,15,10,20.00
2017,08,11,15,11,20.00
2017,08,11,15,12,20.00
2017,08,11,15,13,20.00
2017,08,11,15,14,19.90
2017,08,11,15,15,19.80
2017,08,11,15,16,19.90
2017,08,11,15,17,19.90
2017,08,11,15,18,19.80
2017,08,11,15,19,19.70
2017,08,11,15,20,19.70
2017,08,11,15,21,19.70
2017,08,11,15,22,19.70
2017,08,11,15,23,19.70
2017,08,11,15,24,19.70
2017,08,11,15,25,19.60
2017,08,11,15,26,19.50
2017,08,11,15,27,19.40
2017,08,11,15,28,19.40
2017,08,11,15,29,19.30
2017,08,11,15,30,19.20
2017,08,11,15,31,19.10
2017,08,11,15,32,19.00
2017,08,11,15,33,18.90
2017,08,11,15,34,18.80
2017,08,11,15,35,18.80
2017,08,11,15,36,18.70
2017,08,11,15,37,18.70
2017,08,11,15,38,18.60
2017,08,11,15,39,18.60
2017,08,11,15,40,18.50
2017,08,11,15,41,18.40
2017,08,11,15,42,18.30
2017,08,11,15,43,18.20
2017,08,11,15,44,18.20
2017,08,11,15,45,18.20
2017,08,11,15,46,18.30
2017,08,11,15,47,18.30
2017,08,11,15,48,18.40
2017,08,11,15,49,18.50
2017,08,11,15,50,18.50
2017,08,11,15,51,18.40
2017,08,11,15,52,18.30
2017,08,11,15,53,18.20
2017,08,11,15,54,18.10
2017,08,11,15,55,18.10
2017,08,11,15,56,18.10
2017,08,11,15,57,17.80
2017,08,11,15,58,17.40
2017,08,11,15,59,17.10
2017,08,11,16,00,17.00
2017,08,11,16,01,16.90
2017,08,11,16,02,16.80
2017,08,11,16,03,16.90
2017,08,11,16,04,16.90
2017,08,11,16,05,17.00
2017,08,11,16,06,16.90
2017,08,11,16,07,17.00
2017,08,11,16,08,17.00
2017,08,11,16,09,16.70
2017,08,11,16,10,16.60
2017,08,11,16,11,16.40
2017,08,11,16,12,16.20
2017,08,11,16,13,16.10
2017,08,11,16,14,16.00
2017,08,11,16,15,15.90
2017,08,11,16,16,15.80
2017,08,11,16,17,15.80
2017,08,11,16,18,15.70
2017,08,11,16,19,15.70
2017,08,11,16,20,15.60
2017,08,11,16,21,15.50
2017,08,11,16,22,15.50
2017,08,11,16,23,15.40
2017,08,11,16,24,15.30
2017,08,11,16,25,15.30
2017,08,11,16,26,15.20
2017,08,11,16,27,15.20
2017,08,11,16,28,15.30
2017,08,11,16,29,15.40
2017,08,11,16,30,15.30
2017,08,11,16,31,15.30
2017,08,11,16,32,15.40
2017,08,11,16,33,15.40
2017,08,11,16,34,15.40
2017,08,11,16,35,15.30
2017,08,11,16,36,15.30
2017,08,11,16,37,15.20
2017,08,11,16,38,15.10
2017,08,11,16,39,15.00
2017,08,11,16,40,14.80
2017,08,11,16,41,14.70
2017,08,11,16,42,14.70
2017,08,11,16,43,14.60
2017,08,11,16,44,14.60
2017,08,11,16,45,14.70
2017,08,11,16,46,14.80
2017,08,11,16,47,14.80
2017,08,11,16,48,14.80
2017,08,11,16,49,14.90
2017,08,11,16,50,14.80
2017,08,11,16,51,14.80
2017,08,11,16,52,14.80
2017,08,11,16,53,14.70
2017,08,11,16,54,14.60
2017,08,11,16,55,14.50
2017,08,11,16,56,14.40
2017,08,11,16,57,14.30
2017,08,11,16,58,14.30
2017,08,11,16,59,14.20
2017,08,11,17,00,14.10
2017,08,11,17,01,14.00
2017,08,11,17,02,13.90
2017,08,11,17,03,13.70
2017,08,11,17,04,13.70
2017,08,11,17,05,13.60
2017,08,11,17,06,13.60
2017,08,11,17,07,13.60
2017,08,11,17,08,13.60
2017,08,11,17,09,13.70
2017,08,11,17,10,13.70
2017,08,11,17,11,13.80
2017,08,11,17,12,13.80
2017,08,11,17,13,13.90
2017,08,11,17,14,13.90
2017,08,11,17,15,14.00
2017,08,11,17,16,14.10
2017,08,11,17,17,14.10
2017,08,11,17,18,14.10
2017,08,11,17,19,14.10
2017,08,11,17,20,14.10
2017,08,11,17,21,14.20
2017,08,11,17,22,14.20
2017,08,11,17,23,14.20
2017,08,11,17,24,14.20
2017,08,11,17,25,14.20
2017,08,11,17,26,14.30
2017,08,11,17,27,14.30
2017,08,11,17,28,14.30
2017,08,11,17,29,14.30
2017,08,11,17,30,14.30
2017,08,11,17,31,14.30
2017,08,11,17,32,14.40
2017,08,11,17,33,14.40
2017,08,11,17,34,14.40
2017,08,11,17,35,14.40
2017,08,11,17,36,14.50
2017,08,11,17,37,14.60